Regional Weather Roundup
Issued by NWS Jackson, KY

Home | Current Version | Previous Version | Graphics & Text | Print | Product List | Glossary On
Versions: 1 2 3 4 5 6 7 8 9 10 11 12 13 14 15 16 17 18 19 20 21 22 23 24 25 26 27 28 29 30 31 32 33 34 35 36 37 38 39 40 41 42 43 44 45 46 47 48 49 50
000
ASUS43 KJKL 140010
RWRJKL

EAST KENTUCKY HOURLY WEATHER ROUNDUP
NATIONAL WEATHER SERVICE JACKSON KY
700 PM EST SAT FEB 13 2016

NOTE: "FAIR" INDICATES FEW OR NO CLOUDS BELOW 12,000 FEET WITH
NO SIGNIFICANT WEATHER AND/OR OBSTRUCTIONS TO VISIBILITY.

* THESE REPORTS ARE NOT UNDER NWS QUALITY CONTROL AND MAY NOT
  REPORT WEATHER SUCH AS PRECIPITATION AND FOG.

KYZ079-080-083-085-087-088-110-112-115-119-120-140100
...EASTERN KENTUCKY...

CITY           SKY/WX    TMP DP  RH WIND       PRES   REMARKS
JACKSON        CLEAR     17   0  47 CALM      30.45R
6HR MIN TEMP:  17; 6HR MAX TEMP:  24;

LONDON         CLEAR     20   2  45 N6        30.47R WCI  12
6HR MIN TEMP:  20; 6HR MAX TEMP:  25;

SOMERSET*      CLEAR     21   3  45 CALM      30.50S
MONTICELLO*    PTCLDY    20   8  60 N15       30.49S WCI   6
6HR MIN TEMP:  20; 6HR MAX TEMP:  28;

WILLIAMSBURG*  CLEAR     21   5  49 N5        30.46S WCI  15
MIDDLESBORO*   CLEAR     23   5  45 N3        30.46S
6HR MIN TEMP:  23; 6HR MAX TEMP:  28;

HARLAN APT*      N/A     21   0  39 W3        30.42R
HAZARD APT*    CLEAR    -24 -38  47 NW3       30.46
BLACK MTN*       N/A      5   0  78 N3          N/A
BIG SANDY*     CLEAR     18  -1  44 NW6       30.46R WCI   9
6HR MIN TEMP:  18; 6HR MAX TEMP:  23;

MOREHEAD APT*  CLEAR     18   0  45 NW3       30.51R
$$

KYZ035-036-041-042-044-050-067-078-099-140100
...CENTRAL KENTUCKY...

CITY           SKY/WX    TMP DP  RH WIND       PRES   REMARKS
MT STERLING*   CLEAR     19   3  49 CALM      30.51R
DANVILLE*      CLEAR     19   7  58 CALM      30.50R
RICHMOND*      CLEAR     19   1  45 N3        30.48S
LEXINGTON      CLEAR     18   1  47 N6        30.49R WCI  10
6HR MIN TEMP:  18; 6HR MAX TEMP:  24;

FRANKFORT      CLEAR     20   0  41 N3        30.50S
6HR MIN TEMP:  20; 6HR MAX TEMP:  25;

$$

KYZ091>093-OHZ055-061-077-WVZ005-015-034-035-042-140100
...SOUTHERN OHIO/WEST VIRGINIA...

CITY           SKY/WX    TMP DP  RH WIND       PRES   REMARKS
COVINGTON      PTCLDY    15   1  53 NW5       30.51S WCI   8
COLUMBUS       MOCLDY    13   0  56 W12       30.48S WCI  -1
DAYTON         PTCLDY    11   0  61 NW5       30.49S WCI   3
WILMINGTON     PTCLDY    12  -1  56 W5        30.48S WCI   4
HUNTINGTON       N/A     17  -3  41 NW8       30.50R WCI   7
CHARLESTON       N/A     15  -5  40 NW8       30.47R WCI   4
PINEVILLE*       N/A      9   1  69 MISG      30.43R
BECKLEY          N/A     10  -6  48 NW10      30.31R WCI  -4
$$

VAZ002-007-008-TNZ017-027-036-066-071-140100
...SOUTHWEST VIRGINIA/EAST TENNESSEE...

CITY           SKY/WX    TMP DP  RH WIND       PRES   REMARKS
BRISTOL        CLEAR     21   2  43 N5        30.39R WCI  15
KNOXVILLE      CLEAR     27   5  39 N8        30.42S WCI  19
OAK RIDGE      CLEAR     28   3  34 VRB6      30.45R WCI  22
CROSSVILLE     CLEAR     23   2  40 N6        30.39R WCI  16
NASHVILLE      MOCLDY    27   1  32 NE9       30.49F WCI  18
$$

...KEY TO REMARKS...
VSB - VISIBILITY IN MILES
WCI - WIND CHILL INDEX
HX  - HEAT INDEX

$$



USA.gov is the U.S. government's official web portal to all federal, state and local government web resources and services.